FW8676 Weather Reports


time (UTC)temp
F
wind
direction
speed
knots
gust
knots
rain 1hr
in
rain 24hr
in
rain mn
in
humidity
%
barometer
mb
20260504201556 72 132 4.3 11.3 0.00 0.00 0.00 38 1011.3
20260504200100 72 220 3.5 12.2 0.00 0.00 0.00 38 1011.5
20260504194608 72 145 3.5 7.8 0.00 0.00 0.00 38 1011.7
20260504193055 72 181 2.6 8.7 0.00 0.00 0.00 37 1012.0
20260504191554 72 166 3.5 13.0 0.00 0.00 0.00 38 1012.2
20260504190117 72 236 2.6 9.6 0.00 0.00 0.00 39 1012.2
20260504184558 72 216 1.7 10.4 0.00 0.00 0.00 40 1012.5
20260504183056 71 154 4.3 8.7 0.00 0.00 0.00 39 1012.6
20260504181558 71 241 2.6 11.3 0.00 0.00 0.00 38 1012.9
20260504180144 71 174 1.7 7.8 0.00 0.00 0.00 38 1012.9
20260504174556 70 168 3.5 8.7 0.00 0.00 0.00 36 1013.2
20260504173113 70 129 5.2 16.5 0.00 0.00 0.00 37 1013.4
20260504171556 69 258 1.7 13.9 0.00 0.00 0.00 39 1013.6
20260504140109 61 179 3.5 9.6 0.00 0.00 0.00 55 1014.9
20260504120112 54 181 3.5 11.3 0.00 0.00 0.00 76 1015.5
20260504081555 47 0 0.0 4.3 0.00 0.00 0.00 76 1016.0
20260504050136 50 190 0.0 4.3 0.00 0.00 0.00 60 1015.7
20260504044558 50 0 0.9 3.5 0.00 0.00 0.00 60 1015.8
20260504043058 49 163 0.9 2.6 0.00 0.00 0.00 61 1015.7
20260504041552 48 189 0.9 4.3 0.00 0.00 0.00 63 1015.6
20260504034553 46 0 0.0 0.9 0.00 0.00 0.00 66 1015.3
20260504033057 46 0 0.0 0.0 0.00 0.00 0.00 67 1015.3
20260504031632 46 0 0.0 0.9 0.00 0.00 0.00 67 1015.2
20260504030054 46 0 0.0 0.0 0.00 0.00 0.00 68 1015.1
20260504024559 46 0 0.0 0.0 0.00 0.00 0.00 67 1015.1
20260504023055 46 0 0.0 0.0 0.00 0.00 0.00 68 1015.1
20260504021603 47 0 0.0 0.0 0.00 0.00 0.00 68 1015.2
20260504020051 47 0 0.0 0.0 0.00 0.00 0.00 65 1015.1
20260504014552 48 0 0.0 0.0 0.00 0.00 0.00 64 1015.3
20260504013102 48 0 0.0 0.0 0.00 0.00 0.00 62 1015.1
20260504011600 49 0 0.0 0.0 0.00 0.00 0.00 59 1014.9
20260504010113 50 0 0.0 0.0 0.00 0.00 0.00 56 1014.9
20260504004558 51 0 0.0 0.0 0.00 0.00 0.00 56 1014.7
20260504003055 52 0 0.0 0.0 0.00 0.00 0.00 51 1014.5
20260504001609 54 0 0.0 0.0 0.00 0.00 0.00 48 1014.4
20260504000059 56 0 0.0 0.9 0.00 0.00 0.00 45 1014.1
20260503234603 58 0 0.0 1.7 0.00 0.00 0.00 41 1014.1
20260503233058 59 232 0.0 1.7 0.00 0.00 0.00 39 1014.0
20260503231556 59 234 0.9 6.1 0.00 0.00 0.00 38 1014.0
20260503230059 59 256 0.0 2.6 0.00 0.00 0.00 39 1013.8
20260503224558 60 283 0.9 4.3 0.00 0.00 0.00 36 1013.8
20260503223101 59 335 0.9 6.1 0.00 0.00 0.00 38 1013.9
20260503221559 60 244 0.9 4.3 0.00 0.00 0.00 36 1014.0
20260503220054 60 0 1.7 6.1 0.00 0.00 0.00 36 1013.9
20260503214557 60 318 1.7 7.8 0.00 0.00 0.00 37 1013.9
20260503213133 60 251 2.6 10.4 0.00 0.00 0.00 36 1013.8
20260503211621 61 302 1.7 6.1 0.00 0.00 0.00 36 1013.7
20260503210054 61 252 0.9 9.6 0.00 0.00 0.00 38 1013.8
20260503204622 61 220 1.7 6.1 0.00 0.00 0.00 36 1013.8
20260503203115 60 241 1.7 11.3 0.00 0.00 0.00 37 1014.0